Location: STAR School
(35.3054°N, 111.2976°W)
Time: 04:55:40
(UTC-07:00)

Transit 2A Rocket - Pass Details

Date: 03 June 2019
Orbit: 586 x 917 km, 66.7° (Epoch: 18 June)

Event Time Altitude Azimuth Distance (km) Brightness Sun altitude
Rises 00:28:31 0° 332° (NNW) 3,318 9.1 -32.4°
Reaches altitude 10° 00:31:03 10° 332° (NNW) 2,331 8.2 -32.4°
Enters shadow 00:34:21 38° 331° (NNW) 1,128 6.1 -32.3°
